STARLINK-30068, 56698

Orbit data source: Space-Track

STARLINK-30068, 56698 is a payload satellite owned by SpaceX/Seattle (US) in LEO that was launched on Fri, 19 May 2023 UTC via an FALCON 9 launch vehicle from the Air Force Eastern Test Range (AFETR). Payload-class satellites include a variety of spacecraft equipped with specific instruments for various scientific and technological missions. These include communications satellites like Starlink; space stations such as the ISS; scientific satellites like the Hubble; Earth observation satellites from companies like Planet Labs, Umbra, and HawkEye 360; GPS; miniature CubeSats for education and research; and military/defense satellites.

Loading next visibility...
Identifier
56698, 2023-067L
Orbit
LEO
Country
Flag of USUS
Related business
Manufacturer
SpaceX/Seattle
Mission
Operational Commercial Communications
Bus & Motor
STARLINK V2M, Unknown motor
Mass
730 kg wet, ~700 kg dry
Launch date (UTC)
2023-05-19 (3 years ago)
Launch vehicle
FALCON 9
Launch site
Air Force Eastern Test Range (AFETR)
Object type
Payload
Rocket body
Debris
Shape & HBR
Box + 2 Pan, 17.7 m
Radar Cross Section
33.884 m², Large (>1 m²)

Expand to show TLE details & history
Last TLE update: 2 days ago

TLE from 2 days ago
0 STARLINK-30068
1 56698U 23067L   26171.05187667  .00001444  00000-0  61998-4 0  9999
2 56698  43.0032  41.8022 0001708 262.1617  97.9041 15.27576928171221
Epoch: 2026-06-20T01:14Z
TLE epoch observation values (Epoch: 2026-06-20T01:14:42.144Z)
Latitude
Longitude
114.85456°
Altitude
482.995 km
Speed
7.626 km/s
True Right ascension
02h 47m 12s
True Declination
0° 00' 00"
Sunlit
Object was in daylight at epoch
Visualization orbit readout
Latitude
Unknown
Longitude
Unknown
Altitude
Unknown
Speed
Unknown
Apparent Right ascension
Unknown
Apparent Declination
Unknown
Sunlit
N/A
Visualization observer readout
Local Sidereal Time
21:32:41
Azimuth
Unknown
Elevation
Unknown
Doppler factor
Unknown
Orbital elements
Apogee altitude
486.175 km
Perigee altitude
483.831 km
Semi-major axis
6,863.14 km
Eccentricity
0.00017
Inclination
43.0032°
RAAN
41.8022°
Arg. of periapsis
262.1617°
True anomaly
97.92349°
Mean anomaly
97.9041°
Eccentric anomaly
97.91379°
Mean motion
3.81732 °/min
Orbital period
94.31 mins
BSTAR
0.000061998
Loading maneuver chart data...
Computing Atmospheric mass density...
Loading historical data...
Loading historical data...
Loading historical data...
Loading historical data...
Loading historical data...
Loading historical data...
Loading historical data...

Documentation

Showing up to 5 results
|